Tracking 25620 objects as of 18-May-2022
HD Live streaming from Space Station
objects crossing your sky now

STARLINK-3390

Track STARLINK-3390 now!
10-day predictions
STARLINK-3390 is classified as:


NORAD ID: 51119
Int'l Code: 2022-005R
Perigee: 541.5 km
Apogee: 543.7 km
Inclination: 53.2 °
Period: 95.3 minutes
Semi major axis: 6913 km
RCS: Unknown
Launch date: January 19, 2022
Source: United States (US)
Launch site: AIR FORCE EASTERN TEST RANGE (AFETR)
aabbcc
Your satellite tracking list
Your tracking list is empty




NASA's NSSDC Master Catalog

Two Line Element Set (TLE):
1 51119U 22005R   22137.58335648 -.00647741  00000-0 -41762-1 0  9995
2 51119  53.2174  58.5293 0001640  46.8341  72.6449 15.10241762  1305
Source of the keplerian elements: AFSPC